QPF
0.00 0.00 0.00 0.00 0.00 0.00 0.01 0.01 0.01 0.00 0.00 0.00 0.00 0.00 0.00 0.00 0.00 0.00 0.00 0.00 0.00 0.00 0.00 0.01 0.01 0.01 0.03 0.04 0.02 0.01 0.01 0.00 0.00 0.00 0.00 0.00 0.00 0.01 0.01 0.01 0.01 0.01 0.01 0.01
0.00 0.00 0.00 0.00 0.00 0.00 0.00 0.00 0.00 0.00 0.00 0.00 0.00 0.00 0.00 0.00 0.00 0.00 0.00 0.00 0.00 0.00 0.00 0.00 0.01 0.01 0.02 0.04 0.04 0.02 0.01 0.01 0.00 0.00 0.00 0.00 0.00 0.01 0.01 0.01 0.01 0.01 0.01 0.01
0.01 0.00 0.00 0.00 0.00 0.00 0.00 0.00 0.00 0.00 0.00 0.00 0.00 0.00 0.00 0.00 0.00 0.00 0.00 0.00 0.00 0.00 0.00 0.00 0.01 0.01 0.01 0.02 0.04 0.03 0.01 0.01 0.00 0.00 0.00 0.00 0.00 0.01 0.01 0.01 0.01 0.01 0.01 0.01
0.02 0.01 0.01 0.00 0.00 0.00 0.00 0.00 0.00 0.00 0.00 0.00 0.00 0.00 0.00 0.00 0.00 0.00 0.00 0.00 0.00 0.00 0.00 0.01 0.00 0.00 0.00 0.01 0.02 0.03 0.01 0.01 0.00 0.00 0.00 0.00 0.01 0.01 0.01 0.01 0.01 0.00 0.01 0.01
0.02 0.01 0.01 0.00 0.00 0.00 0.00 0.00 0.00 0.00 0.00 0.00 0.00 0.00 0.00 0.00 0.00 0.00 0.00 0.00 0.00 0.00 0.00 0.01 0.00 0.00 0.00 0.01 0.01 0.03 0.02 0.02 0.01 0.01 0.00 0.00 0.01 0.01 0.01 0.01 0.01 0.01 0.01 0.01
0.03 0.02 0.01 0.00 0.00 0.00 0.01 0.01 0.00 0.00 0.00 0.00 0.00 0.00 0.00 0.00 0.00 0.00 0.00 0.00 0.00 0.00 0.00 0.00 0.00 0.00 0.00 0.01 0.01 0.02 0.03 0.03 0.03 0.02 0.01 0.01 0.01 0.01 0.01 0.01 0.01 0.01 0.01 0.01
0.02 0.02 0.01 0.00 0.00 0.00 0.01 0.01 0.01 0.00 0.00 0.00 0.00 0.00 0.00 0.00 0.00 0.00 0.00 0.00 0.00 0.00 0.00 0.00 0.00 0.00 0.00 0.00 0.01 0.01 0.02 0.03 0.02 0.02 0.01 0.01 0.01 0.01 0.01 0.01 0.01 0.01 0.01 0.01
0.01 0.02 0.01 0.00 0.00 0.01 0.01 0.01 0.01 0.01 0.01 0.01 0.01 0.01 0.01 0.00 0.00 0.00 0.00 0.00 0.00 0.00 0.00 0.00 0.00 0.00 0.00 0.00 0.00 0.01 0.01 0.02 0.02 0.02 0.01 0.01 0.01 0.01 0.01 0.01 0.01 0.01 0.01 0.01
0.01 0.01 0.01 0.01 0.01 0.01 0.01 0.01 0.01 0.01 0.01 0.01 0.01 0.01 0.00 0.00 0.00 0.00 0.00 0.00 0.00 0.00 0.00 0.00 0.00 0.00 0.01 0.00 0.00 0.00 0.01 0.01 0.02 0.02 0.02 0.01 0.01 0.01 0.01 0.01 0.01 0.01 0.01 0.01
0.01 0.01 0.01 0.01 0.01 0.01 0.01 0.01 0.01 0.01 0.01 0.01 0.01 0.01 0.00 0.00 0.00 0.00 0.00 0.00 0.00 0.01 0.01 0.00 0.00 0.00 0.00 0.00 0.00 0.00 0.00 0.01 0.01 0.02 0.02 0.02 0.02 0.02 0.02 0.01 0.02 0.02 0.01 0.02
0.02 0.01 0.01 0.01 0.01 0.01 0.01 0.01 0.01 0.01 0.01 0.00 0.00 0.01 0.00 0.00 0.00 0.00 0.00 0.00 0.00 0.01 0.01 0.01 0.00 0.00 0.00 0.00 0.00 0.00 0.00 0.00 0.00 0.01 0.02 0.03 0.04 0.04 0.03 0.02 0.03 0.04 0.05 0.04
0.02 0.01 0.01 0.01 0.01 0.01 0.01 0.01 0.01 0.01 0.01 0.00 0.00 0.00 0.00 0.00 0.00 0.00 0.00 0.00 0.00 0.01 0.01 0.01 0.01 0.00 0.00 0.00 0.01 0.00 0.00 0.00 0.00 0.00 0.01 0.02 0.04 0.06 0.05 0.04 0.03 0.03 0.03 0.03
0.02 0.01 0.01 0.01 0.01 0.01 0.01 0.01 0.01 0.01 0.01 0.00 0.00 0.00 0.00 0.00 0.00 0.00 0.00 0.00 0.00 0.01 0.01 0.01 0.01 0.01 0.01 0.01 0.01 0.01 0.01 0.01 0.01 0.01 0.01 0.01 0.02 0.04 0.05 0.05 0.04 0.03 0.03 0.03
0.01 0.01 0.01 0.01 0.01 0.01 0.01 0.01 0.00 0.00 0.00 0.00 0.00 0.00 0.00 0.00 0.00 0.00 0.00 0.00 0.00 0.00 0.01 0.01 0.01 0.01 0.01 0.01 0.01 0.01 0.01 0.01 0.01 0.01 0.01 0.01 0.02 0.02 0.02 0.03 0.04 0.04 0.04 0.03
0.00 0.00 0.00 0.01 0.01 0.01 0.00 0.00 0.00 0.00 0.00 0.00 0.00 0.01 0.01 0.01 0.01 0.00 0.00 0.00 0.00 0.00 0.00 0.00 0.01 0.01 0.01 0.01 0.01 0.01 0.01 0.01 0.01 0.01 0.01 0.01 0.01 0.01 0.01 0.02 0.02 0.03 0.03 0.04
0.00 0.00 0.00 0.01 0.01 0.00 0.00 0.00 0.00 0.00 0.00 0.00 0.00 0.00 0.01 0.01 0.01 0.00 0.00 0.00 0.00 0.00 0.00 0.00 0.00 0.01 0.01 0.01 0.01 0.01 0.01 0.01 0.01 0.01 0.01 0.01 0.01 0.01 0.01 0.02 0.02 0.01 0.01 0.02
0.00 0.00 0.01 0.01 0.00 0.00 0.00 0.00 0.00 0.00 0.00 0.00 0.00 0.01 0.01 0.01 0.01 0.00 0.00 0.00 0.00 0.00 0.00 0.00 0.00 0.00 0.01 0.01 0.01 0.01 0.01 0.01 0.01 0.01 0.01 0.01 0.01 0.01 0.01 0.02 0.02 0.01 0.01 0.02
0.00 0.00 0.00 0.00 0.00 0.00 0.00 0.00 0.00 0.01 0.01 0.01 0.01 0.01 0.01 0.01 0.00 0.00 0.00 0.00 0.00 0.00 0.00 0.00 0.00 0.01 0.01 0.01 0.01 0.01 0.01 0.01 0.01 0.01 0.01 0.01 0.01 0.01 0.01 0.01 0.01 0.01 0.01 0.01
0.00 0.00 0.00 0.00 0.00 0.00 0.00 0.00 0.00 0.00 0.00 0.01 0.01 0.01 0.01 0.01 0.01 0.01 0.00 0.00 0.00 0.00 0.00 0.00 0.01 0.00 0.00 0.00 0.01 0.01 0.01 0.01 0.01 0.01 0.01 0.01 0.01 0.01 0.01 0.01 0.01 0.01 0.01 0.01
0.00 0.00 0.00 0.00 0.00 0.01 0.01 0.01 0.01 0.01 0.01 0.01 0.01 0.01 0.01 0.01 0.01 0.01 0.00 0.00 0.00 0.00 0.00 0.00 0.01 0.00 0.00 0.01 0.01 0.01 0.01 0.01 0.01 0.01 0.01 0.01 0.01 0.01 0.01 0.02 0.02 0.01 0.01 0.02
0.00 0.00 0.00 0.00 0.01 0.01 0.01 0.01 0.01 0.01 0.01 0.01 0.01 0.01 0.01 0.01 0.01 0.01 0.01 0.00 0.00 0.00 0.00 0.00 0.00 0.00 0.01 0.01 0.01 0.01 0.01 0.01 0.01 0.01 0.01 0.01 0.01 0.01 0.01 0.01 0.02 0.02 0.02 0.02
0.00 0.00 0.01 0.01 0.01 0.01 0.01 0.01 0.01 0.01 0.01 0.01 0.01 0.01 0.01 0.01 0.01 0.00 0.00 0.00 0.00 0.00 0.00 0.00 0.00 0.01 0.02 0.02 0.01 0.01 0.01 0.01 0.01 0.01 0.01 0.02 0.02 0.02 0.01 0.01 0.01 0.01 0.01 0.02
0.01 0.01 0.01 0.01 0.01 0.01 0.01 0.01 0.01 0.01 0.01 0.01 0.01 0.01 0.01 0.00 0.00 0.01 0.00 0.00 0.00 0.00 0.00 0.00 0.00 0.01 0.01 0.01 0.01 0.01 0.01 0.01 0.01 0.01 0.01 0.02 0.02 0.02 0.02 0.01 0.01 0.01 0.01 0.02
0.01 0.01 0.01 0.01 0.01 0.01 0.01 0.01 0.01 0.01 0.01 0.01 0.00 0.00 0.00 0.00 0.00 0.00 0.00 0.00 0.00 0.00 0.00 0.00 0.00 0.01 0.01 0.01 0.01 0.01 0.01 0.01 0.01 0.01 0.01 0.02 0.02 0.02 0.02 0.02 0.02 0.01 0.01 0.01
0.01 0.01 0.01 0.01 0.01 0.01 0.01 0.01 0.01 0.01 0.01 0.00 0.00 0.00 0.01 0.01 0.01 0.00 0.00 0.00 0.00 0.00 0.00 0.00 0.00 0.00 0.00 0.00 0.01 0.01 0.01 0.01 0.01 0.02 0.01 0.02 0.02 0.02 0.02 0.02 0.02 0.02 0.01 0.01
0.01 0.01 0.01 0.01 0.01 0.01 0.01 0.01 0.01 0.01 0.01 0.01 0.01 0.01 0.01 0.00 0.00 0.00 0.00 0.00 0.00 0.00 0.00 0.00 0.00 0.00 0.00 0.00 0.01 0.01 0.01 0.01 0.01 0.01 0.01 0.01 0.01 0.02 0.02 0.02 0.02 0.02 0.01 0.01
0.01 0.01 0.01 0.01 0.01 0.01 0.01 0.01 0.01 0.01 0.01 0.01 0.01 0.01 0.01 0.00 0.00 0.00 0.00 0.00 0.00 0.00 0.00 0.00 0.00 0.00 0.00 0.00 0.01 0.01 0.01 0.01 0.01 0.01 0.01 0.01 0.01 0.01 0.02 0.02 0.02 0.01 0.01 0.01
MSLP
1026.53 1026.38 1026.15 1025.85 1025.54 1025.25 1025.04 1024.98 1025.11 1025.47 1026.07 1026.88 1027.87 1028.96 1030.04 1031.04 1031.87 1032.48 1032.84 1032.95 1032.85 1032.61 1032.28 1031.94 1031.64 1031.41 1031.25 1031.15 1031.08 1031.00 1030.88 1030.71 1030.48 1030.21 1029.91 1029.62 1029.37 1029.16 1028.99 1028.87 1028.75 1028.61 1028.43 1028.20
1026.64 1026.45 1026.20 1025.90 1025.60 1025.35 1025.21 1025.22 1025.44 1025.90 1026.61 1027.53 1028.62 1029.80 1030.96 1032.03 1032.91 1033.56 1033.94 1034.05 1033.93 1033.65 1033.28 1032.87 1032.49 1032.17 1031.91 1031.71 1031.54 1031.38 1031.18 1030.94 1030.66 1030.34 1030.00 1029.68 1029.39 1029.16 1028.97 1028.83 1028.70 1028.56 1028.38 1028.16
1026.81 1026.61 1026.37 1026.13 1025.91 1025.76 1025.73 1025.85 1026.19 1026.75 1027.53 1028.51 1029.63 1030.82 1031.98 1033.03 1033.89 1034.51 1034.86 1034.95 1034.81 1034.51 1034.10 1033.65 1033.22 1032.83 1032.50 1032.23 1031.98 1031.74 1031.48 1031.18 1030.85 1030.49 1030.13 1029.78 1029.47 1029.21 1029.00 1028.82 1028.67 1028.51 1028.31 1028.08
1027.08 1026.91 1026.75 1026.61 1026.53 1026.53 1026.65 1026.92 1027.37 1028.00 1028.82 1029.79 1030.86 1031.97 1033.03 1033.98 1034.74 1035.27 1035.56 1035.60 1035.44 1035.12 1034.70 1034.24 1033.79 1033.38 1033.01 1032.68 1032.38 1032.09 1031.77 1031.44 1031.07 1030.68 1030.30 1029.93 1029.60 1029.31 1029.07 1028.86 1028.66 1028.46 1028.24 1027.97
1027.48 1027.38 1027.34 1027.36 1027.46 1027.65 1027.94 1028.35 1028.90 1029.58 1030.38 1031.27 1032.22 1033.16 1034.05 1034.81 1035.41 1035.80 1035.99 1035.98 1035.79 1035.48 1035.08 1034.64 1034.21 1033.80 1033.42 1033.07 1032.74 1032.40 1032.06 1031.69 1031.30 1030.89 1030.49 1030.11 1029.76 1029.44 1029.16 1028.91 1028.66 1028.40 1028.12 1027.80
1028.03 1028.05 1028.17 1028.38 1028.67 1029.05 1029.51 1030.05 1030.66 1031.34 1032.07 1032.83 1033.59 1034.32 1034.96 1035.50 1035.89 1036.13 1036.21 1036.13 1035.93 1035.63 1035.27 1034.88 1034.49 1034.11 1033.74 1033.39 1033.04 1032.68 1032.31 1031.91 1031.50 1031.08 1030.67 1030.27 1029.90 1029.56 1029.24 1028.93 1028.62 1028.30 1027.95 1027.57
1028.73 1028.91 1029.20 1029.60 1030.09 1030.64 1031.24 1031.87 1032.51 1033.15 1033.76 1034.35 1034.88 1035.35 1035.74 1036.03 1036.21 1036.29 1036.25 1036.12 1035.91 1035.65 1035.34 1035.01 1034.67 1034.33 1033.99 1033.64 1033.28 1032.89 1032.49 1032.08 1031.64 1031.21 1030.78 1030.37 1029.98 1029.61 1029.25 1028.89 1028.52 1028.13 1027.72 1027.27
1029.57 1029.92 1030.39 1030.96 1031.61 1032.30 1032.99 1033.67 1034.29 1034.85 1035.32 1035.72 1036.02 1036.24 1036.37 1036.43 1036.42 1036.34 1036.22 1036.05 1035.84 1035.61 1035.36 1035.09 1034.80 1034.50 1034.17 1033.82 1033.44 1033.03 1032.60 1032.15 1031.69 1031.24 1030.80 1030.37 1029.96 1029.56 1029.17 1028.76 1028.34 1027.88 1027.40 1026.89
1030.55 1031.06 1031.68 1032.38 1033.14 1033.91 1034.64 1035.30 1035.87 1036.32 1036.65 1036.86 1036.96 1036.95 1036.87 1036.74 1036.57 1036.38 1036.18 1035.99 1035.79 1035.59 1035.38 1035.16 1034.91 1034.63 1034.30 1033.93 1033.51 1033.06 1032.59 1032.10 1031.61 1031.14 1030.68 1030.24 1029.82 1029.40 1028.97 1028.53 1028.06 1027.56 1027.03 1026.48
1031.65 1032.29 1033.00 1033.78 1034.58 1035.36 1036.07 1036.68 1037.17 1037.51 1037.71 1037.76 1037.69 1037.52 1037.28 1037.01 1036.73 1036.47 1036.22 1036.00 1035.81 1035.63 1035.45 1035.24 1035.00 1034.71 1034.36 1033.95 1033.49 1032.99 1032.47 1031.94 1031.41 1030.91 1030.44 1029.98 1029.55 1029.12 1028.68 1028.22 1027.72 1027.19 1026.63 1026.05
1032.84 1033.54 1034.30 1035.08 1035.85 1036.58 1037.22 1037.75 1038.15 1038.39 1038.47 1038.42 1038.24 1037.97 1037.64 1037.29 1036.95 1036.63 1036.36 1036.13 1035.92 1035.74 1035.55 1035.33 1035.06 1034.73 1034.34 1033.88 1033.36 1032.80 1032.23 1031.66 1031.10 1030.58 1030.09 1029.63 1029.19 1028.76 1028.32 1027.85 1027.34 1026.81 1026.24 1025.65
1034.08 1034.78 1035.50 1036.21 1036.90 1037.53 1038.07 1038.50 1038.80 1038.96 1038.98 1038.87 1038.64 1038.33 1037.97 1037.60 1037.23 1036.89 1036.59 1036.33 1036.10 1035.88 1035.64 1035.37 1035.05 1034.67 1034.21 1033.69 1033.11 1032.50 1031.89 1031.28 1030.70 1030.17 1029.67 1029.22 1028.78 1028.36 1027.92 1027.47 1026.97 1026.45 1025.90 1025.33
1035.30 1035.94 1036.56 1037.16 1037.71 1038.21 1038.64 1038.97 1039.20 1039.31 1039.30 1039.17 1038.95 1038.65 1038.30 1037.93 1037.56 1037.20 1036.87 1036.56 1036.27 1035.99 1035.68 1035.34 1034.94 1034.48 1033.96 1033.38 1032.76 1032.11 1031.47 1030.84 1030.26 1029.72 1029.23 1028.78 1028.36 1027.95 1027.54 1027.10 1026.64 1026.14 1025.62 1025.10
1036.45 1036.98 1037.46 1037.91 1038.32 1038.68 1038.99 1039.24 1039.41 1039.49 1039.49 1039.39 1039.20 1038.94 1038.62 1038.26 1037.89 1037.51 1037.13 1036.76 1036.38 1036.00 1035.60 1035.17 1034.69 1034.16 1033.58 1032.96 1032.31 1031.65 1031.00 1030.38 1029.80 1029.27 1028.79 1028.36 1027.96 1027.57 1027.18 1026.78 1026.35 1025.90 1025.43 1024.96
1037.49 1037.88 1038.21 1038.49 1038.75 1038.99 1039.20 1039.38 1039.52 1039.61 1039.62 1039.57 1039.43 1039.21 1038.92 1038.57 1038.18 1037.75 1037.31 1036.84 1036.37 1035.88 1035.38 1034.85 1034.29 1033.70 1033.08 1032.44 1031.78 1031.13 1030.50 1029.90 1029.34 1028.84 1028.38 1027.96 1027.58 1027.22 1026.86 1026.49 1026.11 1025.71 1025.30 1024.89
1038.39 1038.63 1038.81 1038.95 1039.08 1039.22 1039.35 1039.49 1039.62 1039.71 1039.76 1039.74 1039.64 1039.45 1039.18 1038.81 1038.38 1037.89 1037.35 1036.78 1036.20 1035.60 1034.99 1034.37 1033.75 1033.12 1032.49 1031.85 1031.22 1030.60 1030.00 1029.44 1028.91 1028.43 1027.99 1027.59 1027.23 1026.88 1026.55 1026.22 1025.88 1025.54 1025.20 1024.87
1039.12 1039.24 1039.30 1039.34 1039.38 1039.44 1039.53 1039.64 1039.76 1039.86 1039.93 1039.93 1039.85 1039.66 1039.36 1038.96 1038.46 1037.88 1037.24 1036.56 1035.87 1035.16 1034.47 1033.79 1033.12 1032.48 1031.85 1031.24 1030.64 1030.07 1029.52 1029.00 1028.51 1028.05 1027.63 1027.25 1026.89 1026.56 1026.25 1025.95 1025.66 1025.38 1025.11 1024.86
1039.73 1039.76 1039.74 1039.71 1039.69 1039.71 1039.77 1039.86 1039.97 1040.07 1040.13 1040.13 1040.02 1039.80 1039.45 1038.98 1038.40 1037.72 1036.98 1036.20 1035.40 1034.62 1033.86 1033.14 1032.45 1031.82 1031.22 1030.65 1030.10 1029.58 1029.08 1028.60 1028.14 1027.70 1027.29 1026.91 1026.55 1026.23 1025.94 1025.67 1025.43 1025.21 1025.01 1024.83
1040.22 1040.21 1040.16 1040.10 1040.06 1040.05 1040.09 1040.16 1040.25 1040.32 1040.34 1040.29 1040.13 1039.84 1039.41 1038.86 1038.18 1037.42 1036.58 1035.72 1034.85 1034.02 1033.22 1032.49 1031.82 1031.20 1030.64 1030.12 1029.63 1029.16 1028.70 1028.25 1027.81 1027.38 1026.97 1026.59 1026.23 1025.91 1025.63 1025.39 1025.19 1025.02 1024.89 1024.78
1040.64 1040.63 1040.58 1040.52 1040.47 1040.45 1040.47 1040.50 1040.54 1040.55 1040.51 1040.38 1040.13 1039.75 1039.24 1038.59 1037.84 1036.99 1036.10 1035.18 1034.28 1033.42 1032.62 1031.90 1031.26 1030.68 1030.17 1029.69 1029.25 1028.82 1028.39 1027.96 1027.53 1027.10 1026.69 1026.29 1025.94 1025.62 1025.35 1025.13 1024.96 1024.84 1024.76 1024.71
1041.02 1041.03 1040.99 1040.94 1040.89 1040.86 1040.83 1040.81 1040.78 1040.71 1040.57 1040.34 1039.99 1039.52 1038.91 1038.19 1037.37 1036.48 1035.55 1034.62 1033.72 1032.88 1032.11 1031.42 1030.81 1030.28 1029.80 1029.37 1028.96 1028.55 1028.14 1027.72 1027.30 1026.87 1026.45 1026.05 1025.70 1025.38 1025.13 1024.93 1024.79 1024.70 1024.65 1024.64
1041.38 1041.42 1041.40 1041.35 1041.28 1041.21 1041.13 1041.03 1040.91 1040.73 1040.48 1040.14 1039.69 1039.12 1038.45 1037.68 1036.82 1035.92 1035.00 1034.09 1033.22 1032.41 1031.69 1031.04 1030.48 1029.99 1029.55 1029.14 1028.75 1028.36 1027.96 1027.54 1027.12 1026.69 1026.27 1025.88 1025.53 1025.23 1024.98 1024.80 1024.68 1024.61 1024.58 1024.57
1041.73 1041.77 1041.76 1041.69 1041.59 1041.46 1041.31 1041.11 1040.87 1040.58 1040.22 1039.77 1039.23 1038.59 1037.87 1037.08 1036.22 1035.34 1034.46 1033.59 1032.78 1032.03 1031.36 1030.77 1030.24 1029.78 1029.36 1028.97 1028.59 1028.20 1027.81 1027.40 1026.98 1026.56 1026.15 1025.77 1025.44 1025.15 1024.92 1024.75 1024.64 1024.57 1024.53 1024.51
1042.04 1042.08 1042.05 1041.95 1041.79 1041.58 1041.33 1041.03 1040.67 1040.27 1039.80 1039.26 1038.65 1037.97 1037.23 1036.44 1035.61 1034.78 1033.95 1033.16 1032.41 1031.73 1031.11 1030.55 1030.06 1029.62 1029.21 1028.82 1028.44 1028.06 1027.66 1027.26 1026.85 1026.45 1026.06 1025.71 1025.39 1025.13 1024.91 1024.75 1024.63 1024.54 1024.47 1024.41
1042.33 1042.33 1042.25 1042.09 1041.86 1041.56 1041.20 1040.79 1040.33 1039.82 1039.26 1038.65 1038.00 1037.30 1036.56 1035.81 1035.03 1034.26 1033.51 1032.78 1032.10 1031.47 1030.90 1030.37 1029.90 1029.46 1029.05 1028.65 1028.27 1027.88 1027.49 1027.10 1026.71 1026.33 1025.97 1025.64 1025.35 1025.10 1024.89 1024.72 1024.58 1024.46 1024.34 1024.22
1042.57 1042.53 1042.38 1042.15 1041.83 1041.43 1040.97 1040.46 1039.90 1039.31 1038.68 1038.03 1037.35 1036.66 1035.95 1035.23 1034.52 1033.81 1033.13 1032.47 1031.84 1031.25 1030.70 1030.19 1029.71 1029.26 1028.83 1028.42 1028.02 1027.63 1027.24 1026.86 1026.49 1026.14 1025.81 1025.51 1025.24 1024.99 1024.78 1024.59 1024.41 1024.23 1024.06 1023.86
1042.77 1042.66 1042.45 1042.13 1041.72 1041.24 1040.69 1040.09 1039.46 1038.81 1038.14 1037.46 1036.78 1036.11 1035.43 1034.76 1034.10 1033.45 1032.82 1032.20 1031.60 1031.03 1030.48 1029.96 1029.46 1028.99 1028.53 1028.10 1027.68 1027.28 1026.89 1026.52 1026.17 1025.84 1025.53 1025.24 1024.97 1024.72 1024.48 1024.25 1024.02 1023.78 1023.53 1023.25
Thickness
5432 5432 5426 5424 5422 5412 5406 5405 5402 5410 5402 5408 5397 5387 5378 5369 5362 5358 5352 5347 5342 5336 5330 5327 5323 5319 5316 5312 5310 5307 5305 5303 5301 5300 5299 5299 5299 5300 5301 5303 5305 5308 5311 5315
5419 5419 5411 5412 5416 5409 5405 5400 5394 5394 5395 5392 5382 5372 5364 5357 5353 5348 5343 5338 5333 5327 5322 5317 5313 5309 5306 5302 5299 5296 5294 5292 5291 5290 5289 5289 5289 5289 5290 5292 5294 5296 5300 5303
5409 5401 5402 5408 5414 5406 5398 5390 5386 5387 5389 5378 5370 5363 5355 5348 5342 5336 5331 5328 5322 5316 5311 5306 5301 5298 5295 5292 5289 5286 5284 5282 5281 5279 5279 5279 5279 5279 5280 5281 5283 5286 5289 5292
5387 5390 5398 5421 5403 5399 5390 5383 5375 5375 5371 5363 5358 5349 5341 5335 5329 5324 5321 5316 5311 5305 5301 5296 5291 5287 5284 5281 5279 5276 5274 5272 5270 5269 5269 5269 5269 5269 5270 5272 5273 5276 5279 5283
5376 5378 5392 5402 5394 5381 5376 5376 5368 5362 5357 5349 5340 5336 5332 5327 5320 5314 5309 5305 5299 5294 5289 5285 5281 5277 5274 5271 5268 5266 5264 5262 5261 5259 5259 5259 5260 5260 5261 5262 5264 5267 5270 5274
5365 5373 5389 5402 5380 5372 5370 5369 5362 5352 5346 5336 5330 5329 5328 5318 5310 5304 5298 5293 5288 5283 5279 5275 5271 5268 5264 5262 5259 5256 5255 5253 5251 5250 5250 5250 5251 5251 5252 5253 5256 5258 5262 5264
5356 5358 5373 5374 5362 5362 5363 5369 5351 5340 5333 5324 5319 5316 5311 5304 5298 5293 5287 5283 5278 5273 5268 5264 5261 5257 5254 5251 5249 5247 5245 5244 5244 5242 5242 5242 5242 5242 5243 5244 5247 5249 5252 5256
5345 5346 5365 5356 5348 5350 5351 5342 5334 5327 5321 5313 5307 5302 5297 5292 5287 5282 5276 5272 5267 5262 5258 5254 5250 5247 5244 5241 5240 5238 5236 5235 5235 5234 5234 5235 5234 5234 5235 5235 5238 5240 5244 5248
5356 5364 5354 5341 5341 5336 5331 5327 5322 5316 5310 5304 5297 5291 5287 5281 5275 5270 5265 5261 5256 5251 5248 5244 5240 5237 5234 5233 5231 5229 5227 5227 5227 5227 5226 5226 5225 5226 5227 5228 5230 5233 5236 5240
5339 5343 5339 5331 5327 5323 5318 5314 5311 5306 5300 5294 5287 5281 5275 5270 5265 5259 5254 5250 5246 5242 5238 5235 5231 5228 5225 5225 5223 5221 5219 5219 5219 5219 5218 5218 5218 5219 5221 5222 5223 5226 5229 5232
5330 5330 5326 5326 5319 5314 5309 5303 5299 5294 5289 5283 5277 5270 5264 5258 5253 5248 5244 5240 5236 5231 5228 5225 5222 5219 5218 5216 5215 5213 5212 5211 5211 5212 5210 5210 5211 5211 5213 5215 5216 5219 5222 5225
5335 5329 5321 5320 5313 5305 5299 5294 5289 5284 5278 5272 5266 5260 5254 5248 5243 5238 5234 5230 5226 5222 5219 5216 5213 5211 5210 5209 5207 5205 5205 5204 5203 5204 5204 5204 5205 5206 5207 5208 5211 5213 5215 5218
5320 5314 5308 5306 5301 5295 5290 5285 5280 5274 5268 5263 5256 5250 5244 5239 5234 5229 5224 5221 5217 5214 5211 5208 5205 5204 5203 5201 5200 5199 5197 5197 5196 5197 5196 5197 5198 5199 5200 5203 5204 5205 5208 5211
5305 5301 5298 5295 5290 5284 5279 5274 5268 5263 5257 5252 5246 5241 5235 5230 5225 5220 5216 5212 5209 5206 5203 5201 5198 5197 5196 5194 5193 5192 5191 5191 5190 5189 5189 5190 5190 5191 5192 5194 5196 5198 5200 5202
5296 5293 5289 5284 5278 5273 5268 5262 5257 5252 5247 5242 5237 5232 5227 5222 5217 5213 5209 5205 5202 5198 5196 5194 5192 5190 5189 5187 5187 5185 5185 5184 5184 5183 5183 5183 5184 5184 5185 5186 5188 5190 5192 5194
5285 5281 5277 5272 5268 5262 5256 5251 5247 5243 5238 5233 5228 5223 5218 5214 5209 5205 5201 5197 5194 5191 5189 5187 5185 5184 5182 5181 5180 5179 5178 5178 5178 5178 5177 5177 5177 5178 5178 5179 5180 5181 5183 5185
5274 5270 5266 5262 5258 5253 5247 5243 5239 5234 5229 5224 5220 5215 5210 5206 5201 5197 5194 5190 5187 5184 5183 5181 5179 5178 5176 5175 5173 5172 5172 5171 5172 5171 5170 5170 5171 5171 5171 5171 5172 5174 5175 5177
5265 5263 5259 5255 5250 5244 5239 5234 5230 5226 5221 5217 5212 5207 5202 5198 5194 5190 5187 5183 5180 5178 5177 5175 5173 5172 5170 5169 5167 5166 5165 5164 5164 5163 5163 5163 5164 5165 5165 5165 5166 5167 5168 5170
5254 5252 5248 5245 5240 5236 5231 5226 5222 5217 5213 5208 5204 5199 5195 5191 5187 5183 5179 5176 5173 5171 5170 5168 5167 5166 5164 5163 5162 5160 5159 5158 5157 5157 5157 5158 5158 5157 5158 5158 5159 5160 5162 5163
5245 5242 5238 5234 5230 5226 5222 5218 5213 5208 5205 5200 5196 5192 5188 5185 5181 5177 5173 5170 5167 5165 5164 5162 5161 5160 5158 5157 5157 5155 5153 5151 5151 5151 5151 5151 5151 5152 5152 5153 5154 5155 5156 5157
5235 5231 5228 5224 5220 5217 5213 5209 5204 5201 5197 5193 5189 5185 5182 5178 5174 5171 5167 5166 5164 5161 5159 5158 5156 5154 5153 5153 5152 5149 5147 5146 5146 5145 5146 5146 5147 5147 5148 5148 5149 5149 5150 5152
5223 5220 5217 5214 5211 5207 5204 5200 5197 5193 5190 5186 5182 5179 5175 5172 5169 5166 5163 5160 5158 5156 5154 5152 5150 5149 5149 5148 5146 5143 5142 5141 5140 5140 5140 5141 5142 5142 5143 5143 5143 5144 5145 5146
5214 5211 5207 5204 5201 5198 5195 5192 5189 5186 5183 5180 5176 5173 5170 5167 5164 5161 5158 5156 5153 5151 5149 5146 5145 5145 5145 5142 5140 5138 5137 5136 5136 5136 5136 5136 5137 5137 5138 5138 5138 5139 5139 5140
5204 5202 5198 5195 5192 5189 5187 5185 5182 5179 5176 5173 5170 5168 5164 5161 5159 5155 5152 5150 5148 5147 5144 5142 5141 5141 5140 5137 5135 5134 5133 5133 5132 5132 5133 5133 5133 5133 5133 5133 5134 5134 5135 5136
5196 5193 5190 5187 5185 5183 5181 5178 5175 5172 5170 5167 5165 5162 5159 5156 5153 5151 5148 5145 5143 5142 5139 5138 5137 5136 5134 5132 5131 5130 5130 5129 5129 5130 5130 5129 5129 5129 5129 5129 5130 5131 5131 5133
5188 5186 5183 5181 5178 5176 5174 5171 5168 5166 5164 5162 5159 5156 5154 5151 5148 5146 5143 5141 5138 5137 5135 5133 5132 5131 5130 5129 5128 5127 5127 5127 5126 5126 5126 5126 5126 5126 5126 5126 5127 5127 5128 5130
5180 5178 5176 5174 5172 5170 5168 5165 5163 5160 5158 5156 5154 5152 5149 5146 5144 5141 5139 5136 5134 5132 5131 5130 5129 5128 5127 5126 5125 5125 5124 5124 5124 5123 5123 5123 5123 5123 5123 5124 5124 5125 5126 5127